RH
55 43 32 13 13 14 16 20 24 26 29 27 29 30 29 27 26 25 25 23 21 18 15 11 11 16 19 18 21 23 21 20 23 25 27 28 29 28 30 30 30 30 31 30 31 32 31
61 61 55 44 30 17 15 15 17 21 24 23 23 24 25 23 22 22 22 23 22 20 17 14 11 13 19 20 19 23 21 21 22 24 26 28 30 29 28 29 31 31 30 30 31 32 32
78 69 61 62 57 34 27 19 17 16 19 21 22 21 23 21 20 19 18 18 19 20 18 16 13 12 16 19 20 22 22 22 25 26 29 29 31 32 29 29 30 31 31 29 28 30 31
91 90 85 77 71 65 44 36 24 28 23 19 21 24 23 21 20 19 17 18 17 18 17 17 15 15 14 19 21 23 23 24 28 29 28 31 32 34 34 30 30 31 31 36 33 32 32
95 97 95 91 86 76 73 63 44 35 35 35 29 31 30 25 22 19 18 18 18 17 16 16 18 17 16 18 22 23 24 24 28 31 30 31 33 33 35 34 35 34 38 38 38 36 34
83 87 95 97 90 90 84 84 77 59 49 51 46 41 36 33 29 22 21 22 20 17 18 19 21 19 17 19 20 24 23 24 29 32 31 31 34 34 37 39 42 42 41 39 41 41 41
55 72 85 85 92 91 92 88 91 87 85 77 63 52 43 42 39 30 27 29 29 29 22 19 21 22 20 24 23 24 24 24 28 31 32 34 37 43 37 43 39 40 43 42 41 42 46
38 52 61 64 71 80 90 90 92 90 92 86 81 65 62 56 47 36 35 38 41 38 30 19 16 16 16 20 25 22 23 24 27 31 33 35 38 35 37 41 45 42 41 42 38 39 44
26 28 31 43 51 57 67 80 85 87 91 93 93 86 74 63 65 58 51 49 48 45 40 28 18 17 15 17 19 18 23 24 26 31 34 36 35 34 37 39 43 46 45 42 43 42 42
26 23 28 25 22 28 42 50 57 60 76 84 95 94 83 75 68 64 61 58 58 54 55 38 30 23 21 20 18 17 18 24 27 29 36 36 35 36 36 37 39 43 44 48 49 50 52
17 19 19 23 18 19 16 19 24 37 48 58 69 75 81 76 73 82 74 70 73 60 54 39 41 38 37 27 23 21 22 25 27 29 33 33 35 38 37 40 42 42 46 51 53 53 56
21 17 15 15 17 15 13 13 15 19 26 41 52 61 64 67 66 65 69 73 60 54 51 41 43 42 40 37 32 27 28 31 31 33 35 33 37 37 39 42 42 45 50 53 50 52 64
27 26 21 17 15 17 16 12 12 13 15 26 43 58 63 59 66 58 57 61 63 68 38 33 42 45 42 41 38 35 34 36 35 38 40 39 40 43 43 47 46 48 56 58 61 61 65
26 29 31 25 20 17 18 17 13 13 16 17 32 43 53 60 48 66 58 65 58 43 37 32 54 51 52 47 43 40 37 39 37 39 45 51 49 48 46 47 51 55 51 60 71 75 55
27 26 33 35 31 21 19 23 18 17 20 20 32 44 48 51 64 65 61 66 51 41 37 39 55 54 51 49 50 48 43 41 41 44 51 56 52 49 52 53 54 54 50 48 60 66 76
27 27 32 35 37 30 22 24 25 20 24 23 29 45 55 72 71 75 63 48 51 42 39 51 50 52 53 49 53 55 52 46 46 49 53 55 60 57 56 55 56 54 52 57 69 84 81
31 30 31 34 36 37 30 23 25 25 24 26 34 39 44 79 72 80 76 65 55 49 47 55 53 47 51 58 59 58 58 54 58 58 57 61 63 63 62 60 65 62 57 60 67 77 86
39 37 35 37 35 39 38 30 24 29 24 32 36 48 35 63 77 63 70 67 51 54 50 54 49 55 63 63 67 69 68 69 72 69 64 70 76 77 72 68 60 56 54 60 73 77 85
40 42 41 41 44 41 43 39 27 32 27 34 36 45 60 65 68 57 57 54 55 51 55 56 64 68 63 62 72 70 74 73 73 79 75 71 82 86 72 61 55 61 66 69 74 79 80
42 46 48 48 46 46 46 46 37 31 34 32 42 47 60 72 71 70 61 70 63 65 58 65 70 66 64 70 71 70 74 78 75 79 82 74 86 77 80 67 64 66 71 76 81 90 78
41 42 47 48 51 49 48 48 49 34 39 35 44 44 41 52 53 55 54 58 54 58 56 65 60 57 64 70 72 73 75 82 81 89 85 85 90 83 73 69 71 74 80 79 83 78 90
42 41 46 49 50 56 55 52 58 43 46 41 44 43 45 50 58 58 53 45 45 53 50 44 45 45 50 54 63 69 84 89 86 92 90 85 92 91 86 81 78 80 77 71 80 77 78
47 49 51 53 54 57 60 59 61 57 49 47 41 38 40 44 57 63 52 51 47 56 53 49 62 60 57 57 67 74 81 83 82 86 92 92 92 95 86 81 82 84 75 73 68 72 77
54 55 58 59 57 59 62 61 59 63 45 51 40 42 47 47 49 45 45 44 55 62 60 56 66 55 51 60 62 60 62 75 84 88 88 94 94 97 94 93 90 67 61 63 70 75 74
62 64 63 61 63 63 66 66 62 63 58 50 50 42 49 49 44 46 49 55 63 62 52 50 52 39 48 67 74 86 85 84 81 94 93 87 92 98 98 96 83 77 64 66 71 75 75
70 69 71 71 67 66 69 69 67 66 67 55 55 44 50 48 40 47 50 50 54 54 51 43 46 54 59 77 81 88 89 88 88 84 83 90 94 98 97 97 89 69 64 68 72 81 76
79 76 74 74 73 72 72 72 73 75 74 69 55 56 50 52 51 48 45 50 49 47 49 51 54 69 72 75 78 89 87 85 89 88 92 95 97 97 97 97 91 76 71 76 94 88 79
82 79 80 82 82 77 77 74 76 79 77 76 62 56 57 50 56 56 53 55 54 57 61 66 72 70 80 92 90 88 83 81 90 87 89 91 98 98 98 98 92 72 75 86 87 82 74
94 91 87 88 89 87 81 75 81 84 87 83 73 59 60 68 54 58 67 67 60 65 70 68 68 77 80 96 92 87 90 93 94 95 92 97 95 94 96 92 87 83 86 90 77 72 68